Location: Izdebno
(52.6670°N, 16.2170°E)
Time: 02:30:06
(UTC+02:00)

SR - Pass Details

Date: 29 February 2024
Orbit: 577 x 862 km, 66.7° (Epoch: 22 April)

Event Time Altitude Azimuth Distance (km) Brightness Sun altitude
Rises 14:16:39 0° 205° (SSW) 3,436 ? 23.7°
Reaches altitude 10° 14:19:10 10° 202° (SSW) 2,496 ? 23.5°
Maximum altitude 14:24:54 62° 123° (ESE) 948 ? 23.0°
Drops below altitude 10° 14:30:23 10° 44° (NE) 2,402 ? 22.5°
Sets 14:32:47 0° 41° (NE) 3,298 ? 22.2°
